Regional Weather Roundup
Issued by NWS

Home | Current Version | Previous Version | Graphics & Text | Print | Product List | Glossary On
Versions: 1 2 3 4 5 6 7 8 9 10 11 12 13 14 15 16 17 18 19 20 21 22 23 24 25 26 27 28 29 30 31 32 33 34 35 36 37 38 39 40 41 42 43 44 45 46 47 48 49 50
000
ASUS43 KLOT 230706
RWRIL

ILLINOIS REGIONAL WEATHER ROUNDUP
NATIONAL WEATHER SERVICE CHICAGO/ROMEOVILLE IL
200 AM CDT TUE SEP 23 2014

NOTE: "FAIR" INDICATES FEW OR NO CLOUDS BELOW 12,000 FEET WITH NO
SIGNIFICANT WEATHER AND/OR OBSTRUCTIONS TO VISIBILITY.

* THESE STATIONS ARE NOT UNDER NWS QUALITY CONTROL. THEY ALSO MAY NOT
  REPORT WEATHER SUCH AS PRECIPITATION OR FOG.

ILZ001-002-007-009-015-016-024-230800-
NORTHWEST ILLINOIS

CITY           SKY/WX    TMP DP  RH WIND       PRES   REMARKS
MOLINE         CLEAR     46  44  93 CALM      30.27R
STERLING*      CLEAR     46  41  81 CALM      30.27S
SAVANNA*       CLEAR     47  45  93 CALM      30.27R
$$

ILZ003-004-008-010-011-017-018-230800-
NORTH CENTRAL ILLINOIS

CITY           SKY/WX    TMP DP  RH WIND       PRES   REMARKS
ROCKFORD       CLEAR     49  45  86 CALM      30.29R
FREEPORT*      CLEAR     47  44  88 CALM      30.29R
ROCHELLE*      CLEAR     43  41  95 CALM      30.28R
DE KALB*       CLEAR     47  41  81 CALM      30.28R
PERU*          CLEAR     48  45  87 CALM      30.29R
$$

ILZ005-006-012>014-019>023-230800-
NORTHEAST ILLINOIS

CITY           SKY/WX    TMP DP  RH WIND       PRES   REMARKS
CHICAGO-OHARE  CLEAR     53  45  74 CALM      30.27S
CHICAGO-MIDWAY CLEAR     53  44  71 S6        30.28S
AURORA         CLEAR     46  42  86 SE3       30.29R
LANSING*       CLEAR     46  44  95 CALM      30.29S
JOLIET*        CLEAR     45  43  95 CALM      30.29S FOG
WAUKEGAN       CLEAR     51  46  83 VRB3      30.26R
DUPAGE AIRPORT CLEAR     48  44  86 S5        30.27S
KANKAKEE*        N/A     45  44  95 CALM      30.30F FOG
WHEELING       CLEAR     51  45  79 CALM      30.29S
MORRIS*        CLEAR     50  49  97 SE3       30.28S
ROMEOVILLE*    CLEAR     46  44  92 S6        30.29S
NORTHERLY ISL    N/A     56  43  61 W6          N/A
$$

LMZ740>746-230800-
SOUTHERN LAKE MICHIGAN

STATION/POSITION SKY/WX   TEMP    WIND        PRES    VSBY  WAVE
                          AIR SEA DIR/SP/G                  HT/PER
                          (F)     (DEG/KT/KT) (MB)    (MI)  (FT/S)
SOUTHERN BUOY              61 62  220/ 14/ 16 1024.7S         2/ 4
WAUKEGAN HARBOR            55     250/  8/ 10   N/A
BURNHAM HARBOR             56     220/  5/  9   N/A
CALUMET HARBOR             54     210/  5/  6 1024.0S
MICHIGAN CITY 6N           57 63  180/ 10/ 12   N/A           1/ 2
ST. JOSEPH                 58 65  160/ 12/ 14   N/A           1/ 2
$$

ILZ025>027-034>036-040-047-049-050-058-095>099-230800-
WEST-CENTRAL ILLINOIS

CITY           SKY/WX    TMP DP  RH WIND       PRES   REMARKS
QUINCY         PTCLDY    54  43  66 SE5       30.27R
GALESBURG*     CLEAR    N/A N/A N/A CALM      30.28R
MACOMB*        CLEAR     45  44  97 CALM      30.29S
JACKSONVILLE*  CLEAR     48  44  87 CALM      30.29R
PITTSFIELD*    PTCLDY    48  46  90 CALM      30.28S
$$

ILZ028>032-037-038-041>044-048-051>054-059>061-230800-
CENTRAL ILLINOIS

CITY           SKY/WX    TMP DP  RH WIND       PRES   REMARKS
PONTIAC        CLEAR     46  45  93 CALM      30.29S
BLOOMINGTON    CLEAR     50  44  79 SE7       30.30R
DECATUR        CLEAR     46  42  86 NE5       30.29R
PEORIA         CLEAR     51  47  86 CALM      30.29R
LACON*         CLEAR     45  44  93 CALM      30.28R
LINCOLN*       CLEAR     47  44  90 CALM      30.27S
SPRINGFIELD    CLEAR     47  44  90 CALM      30.28S
TAYLORVILLE    CLEAR     45  45 100 CALM      30.28S
$$

ILZ033-039-045-046-055>057-062-063-230800-
EAST-CENTRAL ILLINOIS

CITY           SKY/WX    TMP DP  RH WIND       PRES   REMARKS
CHAMPAIGN        N/A    N/A N/A N/A MISG      30.29S
DANVILLE*      CLEAR     48  45  87 E5        30.27F
RANTOUL*       CLEAR     51  44  75 CALM      30.31S
MATTOON        CLEAR     49  45  86 CALM      30.28R
PARIS*         CLEAR     45  45 100 E3        30.31S
$$

ILZ079-100>102-230800-
SOUTHWEST ILLINOIS

CITY           SKY/WX    TMP DP  RH WIND       PRES   REMARKS
ALTON          CLEAR     48  47  95 CALM      30.28R
BELLEVILLE     CLEAR     50  48  93 N2        30.26S FOG
CAHOKIA*       CLEAR     48  47  96 CALM      30.27S
SPARTA*        CLEAR     46  44  93 CALM      30.27F
$$

ILZ064>066-069>071-074>076-080>082-084>086-088>090-092>094-230800-
SOUTH-CENTRAL ILLINOIS

CITY           SKY/WX    TMP DP  RH WIND       PRES   REMARKS
CARBONDALE     PTCLDY    45  43  93 CALM      30.27R
CAIRO*         CLEAR     50  46  88 CALM      30.26S
EFFINGHAM*     CLEAR     47  44  91 CALM      30.28S
MARION         CLEAR     46  46 100 CALM      30.27S FOG
MT. VERNON     CLEAR     45  41  87 CALM      30.28S
CENTRALIA*     CLEAR     46  44  93 CALM      30.27F
SALEM*         CLEAR     47  47  98 CALM      30.28S
METROPOLIS*    CLEAR     45  45 100 CALM      30.26R
$$

ILZ067-068-072-073-078-083-087-091-230800-
SOUTHEAST ILLINOIS

CITY           SKY/WX    TMP DP  RH WIND       PRES   REMARKS
LAWRENCEVILLE  CLEAR     47  45  93 NE3       30.29S
FLORA*         CLEAR     44  43  96 CALM      30.28S
FAIRFIELD*     CLEAR    N/A N/A N/A CALM      30.27S
HARRISBURG*    CLEAR     46  46 100 CALM      30.28S
ROBINSON*      FOG       45  44  99 CALM      30.30S VSB 1
CARMI*         CLEAR     47  47 100 CALM      30.27S
$$

ABBREVIATIONS USED IN REMARKS
   TC - TEMPERATURE IN CELSIUS
  WCI - WIND CHILL INDEX
   HX - HEAT INDEX
  VSB - VISIBILITY
$$




USA.gov is the U.S. government's official web portal to all federal, state and local government web resources and services.